星链-32322 (STARLINK-32322)

导读 | 豆包AI

STARLINK-32322是美国SpaceX公司星链(Starlink)星座的卫星,于2024年10月30日发射入轨。星链项目旨在构建低轨卫星互联网星座,为全球尤其是偏远地区提供高速宽带互联网服务,该卫星是星链大规模组网的组成部分,将补充增强星座的网络覆盖与通信能力,服务地面终端用户的联网需求。

基本信息
目录编号:
61720
目录名称:
STARLINK-32322
国际标识:
2024-196P
轨道中心:
EARTH
卫星名称:
星链-32322
卫星全名:
星链-32322 (STARLINK-32322)
卫星状态:
在轨 (已飞行501 天)
发射日期:
2024-10-30 UTC
国别 :
美国 (US)
星等 :
--
轨道信息
数据来源 国际轨道数据
星历时间: 2026-03-15T01:29:03+0800
16小时前
查看轨道信息
半长轴: 6853.333km
偏心率: 0.000112
轨道倾角: 53.162°
近地点辐角 88.733°
升交点赤经 78.247°
平近点角 271.380°
近地点: 474.428km
远地点: 475.964km
周期: 94.105分钟
每日圈数: 15.302065
详细信息
固有亮度:
5
最大亮度:
2.5
卫星平台:
Starlink V1.0
覆盖范围:
全球
运营商:
太空探索技术公司
运营商所在国:
美国
制造商(研发单位):
太空探索技术公司
制造商所在国:
美国
使用方式:
暂无
卫星简介
Starlink 计划是 SpaceX 推出的全球卫星互联网项目,通过发射低轨道卫星,为全球尤其是偏远地区提供高速、低延迟的互联网服务。自 2019 年起,Starlink 已部署数千颗卫星,旨在缩小全球数字鸿沟,推动互联网普及。该项目还为军事、航空等行业提供通信支持,带来广泛经济效益。
2D轨道图
3D轨道图
轨道高度分析图
轨道倾角分析图
轨道综合分析图
查看轨道综合分析图